period_start,C,m1,H,J0,J1,J2,J3,J4,J5,JA,JB,JC,JD,JJ,JK,JN,#
2014-10-11 00:01:03,0.02,2.15,0.00,23.31,27.17,29.87,4.82,23.85,1021.84,2035.98,2621.82,2755.90,2947.98,349.71,348.80,31.61,0000 0000 0000 0000 000000
2014-10-11 00:06:04,0.09,2.16,0.00,23.28,27.17,29.86,4.83,23.74,1021.86,2035.96,2621.06,2755.13,2947.30,349.78,349.00,31.64,0000 0000 0000 0000 000000
2014-10-11 00:11:06,0.01,2.16,0.00,23.27,27.17,29.87,4.78,23.81,1021.89,2035.98,2620.85,2755.00,2947.00,350.15,349.18,31.66,0000 0000 0000 0000 000000
2014-10-11 00:16:07,0.05,2.16,0.00,23.32,27.17,29.89,4.80,23.80,1021.92,2035.98,2620.10,2754.86,2946.85,350.15,349.38,31.69,0000 0000 0000 0000 000000
2014-10-11 00:21:08,0.07,2.16,0.00,23.32,27.17,29.89,4.82,23.79,1021.71,2035.97,2619.97,2754.12,2946.12,349.82,349.06,31.72,0000 0000 0000 0000 000000
2014-10-11 00:26:10,0.03,2.16,0.00,23.28,27.17,29.88,4.72,23.72,1021.71,2035.99,2619.36,2754.00,2946.00,350.11,349.20,31.75,0000 0000 0000 0000 000000
2014-10-11 00:31:11,0.02,2.16,0.00,23.25,27.17,29.89,4.86,23.72,1021.71,2035.98,2618.98,2753.97,2945.72,350.20,349.29,31.78,0000 0000 0000 0000 000000
2014-10-11 00:36:12,0.09,2.17,0.00,23.24,27.17,29.87,4.81,23.71,1021.71,2035.98,2618.31,2753.38,2945.05,350.57,349.60,31.81,0000 0000 0000 0000 000000
2014-10-11 00:41:13,0.01,2.17,0.00,23.27,27.17,29.88,4.86,23.82,1021.87,2035.98,2617.99,2753.01,2944.96,349.54,348.71,31.84,0000 0000 0000 0000 000000
2014-10-11 00:46:15,0.06,2.17,0.00,23.26,27.17,29.88,4.75,23.72,1021.89,2035.98,2617.49,2752.94,2944.33,350.04,349.11,31.87,0000 0000 0000 0000 000000
2014-10-11 00:51:16,0.05,2.17,0.00,23.26,27.17,29.89,4.83,23.78,1021.90,2035.98,2617.00,2752.29,2944.01,350.45,349.70,31.90,0000 0000 0000 0000 000000
2014-10-11 00:56:18,0.04,2.17,0.00,23.28,27.17,29.86,4.68,23.73,1021.95,2035.98,2616.62,2752.01,2943.83,349.59,349.10,31.93,0000 0000 0000 0000 000000
2014-10-11 01:01:19,0.03,2.17,0.00,23.26,27.17,29.88,4.73,23.65,1021.96,2035.98,2616.01,2751.98,2943.09,349.71,348.89,31.96,0000 0000 0000 0000 000000
2014-10-11 01:06:21,0.06,2.17,0.00,23.27,27.17,29.88,4.80,23.68,1021.93,2035.98,2615.74,2751.45,2943.00,349.93,348.99,31.99,0000 0000 0000 0000 000000
2014-10-11 01:11:22,0.04,2.18,0.00,23.26,27.17,29.88,4.87,23.76,1021.91,2035.98,2615.07,2751.01,2942.65,350.64,349.75,32.02,0000 0000 0000 0000 000000
2014-10-11 01:16:23,0.03,2.18,0.00,23.26,27.17,29.88,4.84,23.68,1021.81,2035.98,2614.72,2751.00,2942.04,350.12,349.28,32.05,0000 0000 0000 0000 000000
2014-10-11 01:21:24,0.02,2.18,0.00,23.25,27.17,29.88,4.83,23.57,1021.65,2035.99,2614.05,2750.93,2941.96,350.12,349.34,32.08,0000 0000 0000 0000 000000
2014-10-11 01:26:26,0.07,2.18,0.00,23.27,27.17,29.88,4.72,23.63,1021.58,2035.99,2613.95,2750.28,2941.46,349.54,348.64,32.10,0000 0000 0000 0000 000000
2014-10-11 01:31:27,0.04,2.18,0.00,23.27,27.17,29.87,4.85,23.76,1021.52,2035.98,2613.30,2750.00,2941.03,350.14,348.88,32.13,0000 0000 0000 0000 000000
2014-10-11 01:36:28,0.04,2.18,0.00,23.29,27.17,29.86,4.73,23.57,1021.52,2035.96,2612.89,2749.79,2940.74,349.64,348.80,32.16,0000 0000 0000 0000 000000
2014-10-11 01:41:29,0.08,2.18,0.00,23.27,27.17,29.88,4.69,23.65,1021.52,2035.97,2612.15,2749.11,2940.07,349.79,348.75,32.19,0000 0000 0000 0000 000000
2014-10-11 01:46:30,0.00,2.19,0.00,23.23,27.17,29.89,4.67,23.57,1021.51,2035.99,2612.00,2749.00,2940.00,349.73,348.90,32.22,0000 0000 0000 0000 000000
2014-10-11 01:51:31,0.02,2.19,0.00,23.27,27.17,29.87,4.74,23.72,1021.51,2035.98,2611.69,2748.96,2939.85,349.60,348.65,32.25,0000 0000 0000 0000 000000
2014-10-11 01:56:33,0.10,2.19,0.00,23.27,27.17,29.87,4.74,23.63,1021.52,2035.96,2611.01,2748.18,2939.11,349.90,348.63,32.28,0000 0000 0000 0000 000000
2014-10-11 02:01:34,0.03,2.19,0.00,23.25,27.17,29.88,4.89,23.71,1021.51,2035.97,2610.51,2748.00,2938.95,351.01,350.07,32.31,0000 0000 0000 0000 000000
2014-10-11 02:06:35,0.05,2.19,0.00,23.25,27.17,29.88,4.82,23.84,1021.50,2035.95,2610.00,2747.81,2938.27,350.36,349.60,32.34,0000 0000 0000 0000 000000
2014-10-11 02:11:37,0.06,2.19,0.00,23.26,27.17,29.88,4.74,23.82,1021.50,2035.94,2609.47,2747.08,2937.98,349.80,348.74,32.37,0000 0000 0000 0000 000000
2014-10-11 02:16:38,0.03,2.19,0.00,23.22,27.17,29.88,4.84,23.88,1021.49,2035.91,2608.99,2746.99,2937.46,349.99,349.19,32.40,0000 0000 0000 0000 000000
2014-10-11 02:21:39,0.07,2.20,0.00,23.23,27.17,29.88,4.86,23.88,1021.48,2035.93,2608.54,2746.59,2937.02,350.81,349.89,32.43,0000 0000 0000 0000 000000
2014-10-11 02:26:41,0.03,2.20,0.00,23.25,27.17,29.88,4.85,23.96,1021.47,2035.92,2608.00,2746.03,2936.78,350.09,348.89,32.46,0000 0000 0000 0000 000000
2014-10-11 02:31:42,0.03,2.20,0.00,23.22,27.17,29.88,4.85,23.92,1021.41,2035.90,2607.50,2745.96,2936.17,350.34,349.40,32.48,0000 0000 0000 0000 000000
2014-10-11 02:36:43,0.06,2.20,0.00,23.26,27.17,29.86,4.78,23.81,1021.15,2035.85,2606.92,2745.27,2935.95,349.72,348.82,32.51,0000 0000 0000 0000 000000
2014-10-11 02:41:44,0.08,2.20,0.00,23.26,27.17,29.88,4.85,23.77,1021.10,2035.91,2606.20,2745.00,2935.31,350.80,349.66,32.54,0000 0000 0000 0000 000000
2014-10-11 02:46:45,0.01,2.20,0.00,23.22,27.17,29.88,4.81,23.77,1021.06,2035.89,2605.87,2744.93,2935.00,350.05,349.17,32.57,0000 0000 0000 0000 000000
2014-10-11 02:51:46,0.10,2.20,0.00,23.23,27.17,29.88,4.82,23.67,1021.04,2035.94,2605.24,2744.26,2934.68,350.11,349.02,32.60,0000 0000 0000 0000 000000
2014-10-11 02:56:47,0.02,2.21,0.00,23.21,27.17,29.87,4.73,23.68,1021.03,2035.96,2604.97,2744.01,2934.06,349.92,349.15,32.63,0000 0000 0000 0000 000000
2014-10-11 03:01:48,0.04,2.21,0.00,23.22,27.17,29.86,4.78,23.57,1021.02,2035.94,2604.14,2743.96,2933.75,349.97,348.98,32.66,0000 0000 0000 0000 000000
2014-10-11 03:06:49,0.07,2.21,0.00,23.24,27.17,29.87,4.79,23.77,1021.01,2035.97,2603.88,2743.43,2933.07,350.22,349.10,32.69,0000 0000 0000 0000 000000
2014-10-11 03:11:51,0.04,2.21,0.00,23.20,27.17,29.85,4.84,23.82,1021.01,2035.98,2603.14,2743.04,2933.00,350.26,349.28,32.72,0000 0000 0000 0000 000000
2014-10-11 03:16:52,0.04,2.21,0.00,23.20,27.17,29.86,4.77,23.82,1021.01,2035.95,2602.78,2742.97,2932.52,349.78,348.62,32.75,0000 0000 0000 0000 000000
2014-10-11 03:21:53,0.07,2.21,0.00,23.24,27.17,29.86,4.80,23.73,1020.97,2035.97,2602.04,2742.38,2932.02,349.97,348.82,32.78,0000 0000 0000 0000 000000
2014-10-11 03:26:55,0.02,2.22,0.00,23.22,27.17,29.88,4.80,23.60,1020.65,2035.96,2601.83,2742.02,2931.86,350.45,349.16,32.81,0000 0000 0000 0000 000000
2014-10-11 03:31:56,0.04,2.22,0.00,23.19,27.17,29.80,4.81,23.64,1020.64,2035.93,2601.06,2741.97,2931.08,349.82,348.36,32.84,0000 0000 0000 0000 000000
2014-10-11 03:36:57,0.07,2.22,0.00,23.13,27.17,29.84,4.80,23.65,1020.55,2035.92,2600.63,2741.37,2930.96,349.87,348.95,32.87,0000 0000 0000 0000 000000
2014-10-11 03:41:59,0.05,2.22,0.00,23.09,27.15,29.80,4.74,23.57,1020.54,2035.94,2600.02,2741.02,2930.45,349.42,348.26,32.89,0000 0000 0000 0000 000000
2014-10-11 03:47:00,0.02,2.22,0.00,23.07,27.15,29.76,4.85,23.78,1020.54,2035.98,2599.93,2741.00,2930.03,349.98,348.78,32.92,0000 0000 0000 0000 000000
2014-10-11 03:52:01,0.04,2.22,0.00,23.15,27.13,29.71,4.85,23.78,1020.55,2035.98,2599.25,2740.86,2929.98,350.25,349.25,32.95,0000 0000 0000 0000 000000
2014-10-11 03:57:02,0.06,2.22,0.00,23.18,27.12,29.73,4.73,23.78,1020.54,2035.98,2599.00,2740.17,2929.47,350.27,348.91,32.98,0000 0000 0000 0000 000000
2014-10-11 04:02:03,0.04,2.23,0.00,23.17,27.12,29.72,4.79,23.80,1020.52,2035.99,2598.48,2740.00,2929.02,350.14,348.92,33.01,0000 0000 0000 0000 000000
2014-10-11 04:07:04,0.01,2.23,0.00,23.17,27.12,29.75,4.72,23.82,1020.52,2035.98,2598.03,2739.98,2928.99,349.71,348.55,33.04,0000 0000 0000 0000 000000
2014-10-11 04:12:06,0.05,2.23,0.00,23.17,27.12,29.75,4.73,24.02,1020.50,2035.99,2597.98,2739.46,2928.77,349.81,348.71,33.07,0000 0000 0000 0000 000000
2014-10-11 04:17:07,0.06,2.23,0.00,23.17,27.12,29.75,4.78,23.93,1020.52,2035.99,2597.44,2739.02,2928.15,350.28,349.03,33.10,0000 0000 0000 0000 000000
2014-10-11 04:22:08,0.01,2.23,0.00,23.19,27.12,29.77,4.78,23.96,1020.49,2035.99,2596.95,2738.97,2927.98,349.96,348.71,33.13,0000 0000 0000 0000 000000
2014-10-11 04:27:09,0.09,2.23,0.00,23.20,27.12,29.77,4.74,23.79,1020.51,2035.98,2596.26,2738.49,2927.46,349.30,348.16,33.16,0000 0000 0000 0000 000000
2014-10-11 04:32:11,0.03,2.23,0.00,23.21,27.12,29.79,4.76,23.91,1020.29,2035.99,2595.87,2738.02,2927.00,350.26,348.87,33.19,0000 0000 0000 0000 000000
2014-10-11 04:37:12,0.04,2.24,0.00,23.22,27.12,29.75,4.78,24.11,1020.06,2035.99,2595.19,2737.99,2926.64,350.09,348.68,33.22,0000 0000 0000 0000 000000
2014-10-11 04:42:13,0.02,2.24,0.00,23.21,27.12,29.71,4.76,23.96,1020.05,2035.99,2594.99,2737.83,2926.09,350.18,348.87,33.25,0000 0000 0000 0000 000000
2014-10-11 04:47:15,0.06,2.24,0.00,23.17,27.12,29.71,4.79,24.02,1020.06,2035.99,2594.67,2737.14,2926.00,349.30,347.88,33.28,0000 0000 0000 0000 000000
2014-10-11 04:52:16,0.02,2.24,0.00,23.21,27.12,29.74,4.77,23.83,1020.04,2035.99,2594.04,2737.00,2925.94,349.88,348.45,33.30,0000 0000 0000 0000 000000
2014-10-11 04:57:17,0.03,2.24,0.00,23.22,27.12,29.74,4.69,23.99,1020.04,2035.99,2593.96,2736.93,2925.42,350.00,348.60,33.33,0000 0000 0000 0000 000000
2014-10-11 05:02:18,0.09,2.24,0.00,23.21,27.12,29.74,4.72,23.88,1020.04,2035.98,2593.16,2736.16,2925.00,349.47,347.97,33.36,0000 0000 0000 0000 000000
2014-10-11 05:07:19,0.02,2.24,0.00,23.21,27.11,29.71,4.79,23.73,1020.04,2035.99,2592.96,2736.00,2924.72,350.16,348.90,33.39,0000 0000 0000 0000 000000
2014-10-11 05:12:21,0.04,2.24,0.00,23.10,27.10,29.75,4.74,23.82,1020.04,2035.98,2592.45,2735.97,2924.09,350.34,348.95,33.42,0000 0000 0000 0000 000000
2014-10-11 05:17:22,0.05,2.25,0.00,22.97,27.10,29.73,4.67,23.81,1020.04,2035.99,2592.00,2735.39,2924.00,349.14,348.11,33.45,0000 0000 0000 0000 000000
2014-10-11 05:22:23,0.05,2.25,0.00,22.97,27.08,29.70,4.76,23.81,1020.04,2035.99,2591.38,2735.02,2923.75,349.86,348.81,33.48,0000 0000 0000 0000 000000
2014-10-11 05:27:24,0.03,2.25,0.00,23.03,27.07,29.64,4.79,23.89,1020.03,2035.99,2590.98,2734.99,2923.10,350.36,349.21,33.51,0000 0000 0000 0000 000000
2014-10-11 05:32:25,0.06,2.25,0.00,23.25,27.06,29.63,4.82,23.96,1020.03,2035.99,2590.58,2734.61,2923.00,350.44,348.65,33.54,0000 0000 0000 0000 000000
2014-10-11 05:37:27,0.05,2.25,0.00,23.33,27.06,29.64,4.76,23.94,1020.03,2035.99,2590.01,2734.07,2922.60,350.03,348.64,33.57,0000 0000 0000 0000 000000
2014-10-11 05:42:28,0.04,2.25,0.00,23.27,27.05,29.68,4.77,23.77,1020.03,2035.99,2589.43,2734.00,2922.02,350.24,348.73,33.60,0000 0000 0000 0000 000000
2014-10-11 05:47:29,0.03,2.25,0.00,23.03,27.05,29.73,4.81,23.85,1020.02,2035.99,2589.00,2733.75,2921.87,349.87,348.69,33.63,0000 0000 0000 0000 000000
2014-10-11 05:52:30,0.09,2.26,0.00,22.94,27.05,29.72,4.79,23.91,1020.00,2035.99,2588.40,2733.05,2921.20,350.08,348.80,33.66,0000 0000 0000 0000 000000
2014-10-11 05:57:32,0.00,2.26,0.00,23.00,27.05,29.67,4.75,23.82,1019.83,2035.99,2587.98,2733.00,2921.00,350.08,348.82,33.69,0000 0000 0000 0000 000000
2014-10-11 06:02:33,0.07,2.26,0.00,23.14,27.03,29.67,4.74,23.85,1019.81,2036.00,2587.41,2732.82,2920.52,350.12,348.58,33.71,0000 0000 0000 0000 000000
2014-10-11 06:07:34,0.04,2.26,0.00,23.27,27.02,29.62,4.79,23.88,1019.83,2036.00,2587.01,2732.12,2920.03,350.48,348.94,33.74,0000 0000 0000 0000 000000
2014-10-11 06:12:35,0.03,2.26,0.00,23.25,27.02,29.66,4.72,23.77,1019.67,2036.00,2586.49,2732.00,2919.98,349.71,348.14,33.77,0000 0000 0000 0000 000000
2014-10-11 06:17:37,0.03,2.26,0.00,23.02,27.02,29.69,4.83,23.74,1019.58,2036.02,2585.90,2731.88,2919.58,350.01,348.74,33.80,0000 0000 0000 0000 000000
2014-10-11 06:22:38,0.09,2.27,0.00,22.96,27.02,29.69,4.77,23.78,1019.56,2036.00,2585.05,2731.07,2918.96,350.33,349.03,33.83,0000 0000 0000 0000 000000
2014-10-11 06:27:40,0.03,2.27,0.00,23.03,27.02,29.66,4.83,23.86,1019.55,2036.01,2584.75,2730.99,2918.40,350.30,348.83,33.86,0000 0000 0000 0000 000000
2014-10-11 06:32:41,0.04,2.27,0.00,23.13,27.01,29.66,4.75,23.80,1019.55,2036.01,2584.09,2730.85,2918.02,349.93,348.50,33.89,0000 0000 0000 0000 000000
2014-10-11 06:37:42,0.04,2.27,0.00,23.26,27.02,29.65,4.73,23.77,1019.51,2036.01,2583.90,2730.13,2917.95,349.71,347.87,33.92,0000 0000 0000 0000 000000
2014-10-11 06:42:44,0.06,2.27,0.00,23.28,27.02,29.65,4.73,23.78,1019.27,2036.03,2583.16,2729.99,2917.33,349.69,347.96,33.95,0000 0000 0000 0000 000000
2014-10-11 06:47:45,0.05,2.27,0.00,23.07,27.02,29.69,4.80,23.73,1019.13,2036.01,2582.76,2729.60,2917.00,350.24,348.70,33.98,0000 0000 0000 0000 000000
2014-10-11 06:52:46,0.06,2.28,0.00,22.97,27.02,29.73,4.83,23.78,1019.09,2036.03,2582.05,2729.04,2916.73,350.64,349.17,34.01,0000 0000 0000 0000 000000
2014-10-11 06:57:47,0.03,2.28,0.00,23.04,27.01,29.66,4.74,23.74,1019.09,2036.07,2581.87,2729.00,2916.18,349.88,348.44,34.04,0000 0000 0000 0000 000000
2014-10-11 07:02:48,0.03,2.28,0.00,23.12,27.00,29.66,4.74,23.72,1019.06,2036.07,2581.35,2728.89,2916.00,350.06,348.38,34.07,0000 0000 0000 0000 000000
2014-10-11 07:07:49,0.08,2.28,0.00,23.27,27.00,29.66,4.73,23.73,1019.06,2036.13,2580.95,2728.21,2915.76,349.97,348.18,34.10,0000 0000 0000 0000 000000
2014-10-11 07:12:51,0.04,2.28,0.00,23.26,27.01,29.64,4.74,23.62,1019.06,2036.07,2580.14,2727.99,2915.03,349.96,348.26,34.12,0000 0000 0000 0000 000000
2014-10-11 07:17:52,0.10,2.28,0.00,23.04,27.02,29.69,4.83,23.82,1019.05,2036.02,2579.37,2727.41,2914.47,350.18,348.64,34.15,0000 0000 0000 0000 000000
2014-10-11 07:22:54,0.02,2.29,0.00,22.97,27.01,29.70,4.67,23.74,1019.02,2036.03,2579.00,2727.01,2914.01,349.73,348.28,34.18,0000 0000 0000 0000 000000
2014-10-11 07:27:55,0.04,2.29,0.00,23.03,27.00,29.67,4.76,23.74,1018.94,2036.05,2578.42,2726.99,2913.97,350.13,348.66,34.21,0000 0000 0000 0000 000000
2014-10-11 07:32:56,0.09,2.29,0.00,23.14,27.00,29.65,4.64,23.79,1018.92,2036.13,2577.99,2726.66,2913.29,349.61,347.89,34.24,0000 0000 0000 0000 000000
2014-10-11 07:37:58,0.04,2.29,0.00,23.28,27.00,29.63,4.80,23.93,1018.82,2036.07,2577.40,2726.03,2912.99,349.84,348.03,34.27,0000 0000 0000 0000 000000
2014-10-11 07:42:59,0.05,2.29,0.00,23.25,27.00,29.64,4.81,23.74,1018.71,2036.02,2576.76,2725.84,2912.44,349.65,347.72,34.30,0000 0000 0000 0000 000000
2014-10-11 07:48:00,0.07,2.29,0.00,23.03,27.00,29.70,4.80,23.75,1018.64,2036.05,2576.04,2725.17,2912.00,350.10,348.23,34.33,0000 0000 0000 0000 000000
2014-10-11 07:53:02,0.05,2.29,0.00,23.00,27.00,29.71,4.81,23.71,1018.61,2036.05,2575.62,2724.99,2911.63,349.71,348.07,34.36,0000 0000 0000 0000 000000
2014-10-11 07:58:03,0.04,2.30,0.00,23.06,27.00,29.65,4.77,23.73,1018.59,2036.04,2574.94,2724.88,2911.02,349.77,347.93,34.39,0000 0000 0000 0000 000000
2014-10-11 08:03:04,0.11,2.30,0.00,23.17,27.00,29.63,4.79,23.67,1018.60,2036.08,2574.10,2724.12,2910.36,350.22,348.39,34.42,0000 0000 0000 0000 000000
2014-10-11 08:08:05,0.04,2.30,0.00,23.30,27.00,29.62,4.64,23.59,1018.58,2036.10,2573.41,2724.00,2909.98,349.81,347.91,34.45,0000 0000 0000 0000 000000
2014-10-11 08:13:06,0.05,2.30,0.00,23.28,27.00,29.64,4.87,23.73,1018.57,2036.13,2573.01,2723.80,2909.32,350.43,348.53,34.48,0000 0000 0000 0000 000000
2014-10-11 08:18:07,0.07,2.30,0.00,23.05,27.00,29.71,4.82,23.73,1018.59,2036.14,2572.67,2723.06,2909.02,350.08,348.48,34.51,0000 0000 0000 0000 000000
2014-10-11 08:23:08,0.01,2.31,0.00,23.01,27.00,29.72,4.74,23.56,1018.57,2036.11,2572.05,2723.00,2908.97,349.81,348.16,34.53,0000 0000 0000 0000 000000
2014-10-11 08:28:10,0.06,2.31,0.00,23.08,27.00,29.67,4.84,23.67,1018.57,2036.14,2571.92,2722.72,2908.58,350.53,348.77,34.56,0000 0000 0000 0000 000000
2014-10-11 08:33:11,0.09,2.31,0.00,23.14,27.00,29.66,4.76,23.68,1018.57,2036.18,2571.12,2722.06,2908.02,349.88,348.07,34.59,0000 0000 0000 0000 000000
2014-10-11 08:38:13,0.05,2.31,0.00,23.22,27.00,29.65,4.78,23.77,1018.57,2036.17,2570.46,2721.99,2907.57,350.46,348.63,34.62,0000 0000 0000 0000 000000
2014-10-11 08:43:14,0.08,2.31,0.00,23.18,27.00,29.63,4.83,23.69,1018.57,2036.24,2569.99,2721.58,2907.05,350.01,348.16,34.65,0000 0000 0000 0000 000000
2014-10-11 08:48:15,0.05,2.31,0.00,22.98,27.00,29.66,4.80,23.72,1018.57,2036.23,2569.34,2721.02,2906.90,350.15,348.75,34.68,0000 0000 0000 0000 000000
2014-10-11 08:53:16,0.04,2.32,0.00,22.91,27.00,29.67,4.79,23.74,1018.57,2036.22,2568.92,2720.97,2906.10,349.95,348.53,34.71,0000 0000 0000 0000 000000
2014-10-11 08:58:18,0.08,2.01,0.00,23.02,26.98,29.65,4.18,21.16,1018.54,2036.63,2689.10,2802.86,3002.12,311.23,309.59,0.00,0000 0000 0000 0000 000002
2014-10-11 09:03:19,0.07,0.00,0.00,23.22,26.99,29.65,4.78,26.77,1018.49,2038.90,3471.51,3337.82,3626.37,349.99,348.02,0.01,0000 0000 0000 0000 000000
2014-10-11 09:08:20,0.07,0.00,0.00,23.33,27.00,29.61,4.87,26.65,1018.35,2038.86,3469.26,3337.04,3624.82,350.31,348.21,0.04,0000 0000 0000 0000 000000
2014-10-11 09:13:21,0.07,0.00,0.00,23.25,27.00,29.64,4.78,26.48,1018.21,2038.74,3467.88,3336.48,3623.60,349.67,347.84,0.07,0000 0000 0000 0000 000000
2014-10-11 09:18:22,0.07,0.00,0.00,23.03,27.00,29.72,4.71,26.40,1018.16,2038.81,3466.85,3336.00,3622.66,349.18,347.57,0.10,0000 0000 0000 0000 000000
2014-10-11 09:23:23,0.07,0.00,0.00,22.96,27.00,29.74,4.79,26.33,1018.20,2038.88,3465.94,3335.60,3621.91,350.08,348.41,0.12,0000 0000 0000 0000 000000
2014-10-11 09:28:25,0.06,0.01,0.00,23.06,27.00,29.74,4.75,26.33,1018.12,2038.82,3464.98,3335.01,3621.05,349.84,348.08,0.15,0000 0000 0000 0000 000000
2014-10-11 09:33:26,0.08,0.01,0.00,23.31,27.00,29.71,4.78,26.39,1018.09,2038.83,3464.09,3334.48,3620.25,349.81,347.73,0.18,0000 0000 0000 0000 000000
2014-10-11 09:38:27,0.00,0.01,0.00,23.38,27.01,29.69,4.78,26.32,1018.10,2038.65,3463.21,3333.97,3619.45,349.78,347.69,0.21,0000 0000 0000 0000 000000
2014-10-11 09:43:29,0.07,0.01,0.00,23.26,27.02,29.71,4.73,26.19,1018.09,2038.62,3462.24,3333.29,3618.77,349.81,347.52,0.24,0000 0000 0000 0000 000000
2014-10-11 09:48:30,0.04,0.01,0.00,23.02,27.02,29.77,4.82,26.10,1018.08,2038.46,3461.33,3332.97,3618.01,349.69,347.75,0.27,0000 0000 0000 0000 000000
2014-10-11 09:53:31,0.07,0.01,0.00,22.96,27.02,29.78,4.77,26.19,1018.08,2038.39,3460.47,3332.19,3617.24,349.90,348.23,0.30,0000 0000 0000 0000 000000
2014-10-11 09:58:33,0.06,0.01,0.00,23.06,27.02,29.75,4.77,26.13,1018.06,2038.47,3459.63,3331.96,3616.80,350.15,348.05,0.33,0000 0000 0000 0000 000000
2014-10-11 10:03:34,0.09,0.02,0.00,23.11,27.02,29.70,4.78,26.27,1018.00,2038.58,3458.89,3331.20,3616.04,349.98,348.14,0.36,0000 0000 0000 0000 000000
2014-10-11 10:08:35,0.02,0.02,0.00,23.24,27.02,29.69,4.78,26.20,1017.82,2038.65,3457.97,3330.94,3615.32,349.97,347.99,0.39,0000 0000 0000 0000 000000
2014-10-11 10:13:36,0.07,0.02,0.00,23.23,27.02,29.66,4.83,26.15,1017.70,2038.45,3457.01,3330.14,3614.64,350.55,348.23,0.42,0000 0000 0000 0000 000000
2014-10-11 10:18:38,0.03,0.02,0.00,23.04,27.02,29.71,4.77,26.16,1017.61,2038.38,3456.13,3329.91,3614.00,350.24,348.25,0.45,0000 0000 0000 0000 000000
2014-10-11 10:23:39,0.06,0.02,0.00,22.95,27.02,29.73,4.76,26.09,1017.59,2038.30,3455.30,3329.10,3613.18,350.01,348.23,0.48,0000 0000 0000 0000 000000
2014-10-11 10:28:40,0.04,0.02,0.00,23.05,27.02,29.67,4.74,26.09,1017.59,2038.16,3454.44,3328.90,3612.63,349.64,347.61,0.51,0000 0000 0000 0000 000000
2014-10-11 10:33:41,0.08,0.03,0.00,23.10,27.00,29.64,4.69,26.18,1017.59,2038.31,3453.76,3328.14,3612.00,349.29,347.33,0.53,0000 0000 0000 0000 000000
2014-10-11 10:38:42,0.05,0.03,0.00,23.21,27.00,29.64,4.81,26.32,1017.59,2038.21,3452.74,3327.74,3611.25,349.64,347.43,0.56,0000 0000 0000 0000 000000
2014-10-11 10:43:44,0.09,0.03,0.00,23.16,27.00,29.64,4.73,26.15,1017.57,2038.58,3452.02,3327.15,3610.90,349.83,347.65,0.59,0000 0000 0000 0000 000000
2014-10-11 10:48:45,0.03,0.03,0.00,22.95,27.00,29.70,4.75,26.13,1017.57,2038.48,3451.22,3326.92,3610.10,349.83,347.76,0.62,0000 0000 0000 0000 000000
2014-10-11 10:53:46,0.09,0.03,0.00,22.92,27.00,29.66,4.75,26.13,1017.57,2038.41,3450.24,3326.20,3609.57,349.85,347.96,0.65,0000 0000 0000 0000 000000
2014-10-11 10:58:48,0.07,0.04,0.00,23.03,26.99,29.67,4.74,26.21,1017.51,2038.63,3449.48,3326.00,3609.00,350.06,348.01,0.68,0000 0000 0000 0000 000000
2014-10-11 11:03:49,0.06,0.04,0.00,23.24,26.99,29.66,4.73,26.08,1017.45,2038.73,3448.79,3325.37,3608.30,349.80,347.44,0.71,0000 0000 0000 0000 000000
2014-10-11 11:08:51,0.04,0.04,0.00,23.33,27.00,29.61,4.80,26.08,1017.25,2038.73,3448.01,3324.99,3607.87,350.18,347.46,0.74,0000 0000 0000 0000 000000
2014-10-11 11:13:52,0.05,0.04,0.00,23.29,27.00,29.64,4.79,26.15,1017.20,2038.58,3447.07,3324.27,3607.07,350.26,347.52,0.77,0000 0000 0000 0000 000000
2014-10-11 11:18:53,0.06,0.04,0.00,23.06,27.00,29.69,4.84,26.23,1017.17,2038.47,3446.03,3323.89,3606.25,350.15,347.83,0.80,0000 0000 0000 0000 000000
2014-10-11 11:23:54,0.11,0.05,0.00,22.98,27.00,29.73,4.73,26.13,1017.12,2038.79,3445.16,3323.12,3605.96,350.15,347.99,0.83,0000 0000 0000 0000 000000
2014-10-11 11:28:55,0.03,0.05,0.00,23.07,27.00,29.71,4.76,26.09,1017.11,2038.77,3444.32,3322.95,3605.17,349.88,347.54,0.86,0000 0000 0000 0000 000000
2014-10-11 11:33:57,0.08,0.05,0.00,23.22,27.00,29.72,4.73,26.09,1017.11,2038.88,3443.69,3322.17,3604.76,349.93,347.46,0.89,0000 0000 0000 0000 000000
2014-10-11 11:38:58,0.04,0.05,0.00,23.35,27.01,29.68,4.79,26.31,1017.10,2038.83,3442.66,3321.74,3604.01,349.60,347.30,0.92,0000 0000 0000 0000 000000
2014-10-11 11:43:59,0.08,0.05,0.00,23.31,27.02,29.71,4.78,26.10,1017.03,2038.86,3441.78,3321.05,3603.22,349.91,347.37,0.94,0000 0000 0000 0000 000000
2014-10-11 11:49:01,0.05,0.06,0.00,23.08,27.02,29.76,4.77,26.08,1016.82,2038.83,3440.94,3320.70,3602.69,350.12,347.51,0.97,0000 0000 0000 0000 000000
2014-10-11 11:54:02,0.06,0.06,0.00,23.00,27.02,29.76,4.74,26.05,1016.67,2038.85,3440.11,3320.05,3602.03,349.83,347.51,1.00,0000 0000 0000 0000 000000
2014-10-11 11:59:03,0.03,0.06,0.00,23.05,27.02,29.74,4.74,26.07,1016.64,2038.61,3439.21,3319.63,3601.26,349.72,347.40,1.03,0000 0000 0000 0000 000000
2014-10-11 12:04:04,0.05,0.06,0.00,23.12,27.02,29.72,4.70,26.04,1016.62,2038.74,3438.39,3319.02,3600.91,349.87,347.39,1.06,0000 0000 0000 0000 000000
2014-10-11 12:09:06,0.05,0.06,0.00,23.26,27.02,29.72,4.76,26.05,1016.62,2038.77,3437.69,3318.64,3600.11,349.90,347.22,1.09,0000 0000 0000 0000 000000
2014-10-11 12:14:07,0.07,0.06,0.00,23.37,27.02,29.70,4.72,26.07,1016.62,2038.79,3436.89,3318.02,3599.60,349.60,346.93,1.12,0000 0000 0000 0000 000000
2014-10-11 12:19:08,0.02,0.07,0.00,23.34,27.04,29.71,4.78,26.18,1016.62,2038.71,3436.08,3317.61,3599.00,349.92,347.20,1.15,0000 0000 0000 0000 000000
2014-10-11 12:24:10,0.06,0.07,0.00,23.10,27.05,29.75,4.75,26.06,1016.61,2038.62,3435.19,3317.02,3598.25,350.03,347.65,1.18,0000 0000 0000 0000 000000
2014-10-11 12:29:11,0.03,0.07,0.00,23.02,27.05,29.78,4.67,26.01,1016.54,2038.28,3434.22,3316.49,3597.65,349.39,346.82,1.21,0000 0000 0000 0000 000000
2014-10-11 12:34:13,0.04,0.07,0.00,23.11,27.05,29.76,4.75,26.01,1016.25,2038.26,3433.37,3316.00,3597.01,349.58,347.16,1.24,0000 0000 0000 0000 000000
2014-10-11 12:39:14,0.07,0.07,0.00,23.22,27.05,29.76,4.79,26.23,1016.15,2038.22,3432.57,3315.40,3596.35,349.79,346.90,1.27,0000 0000 0000 0000 000000
2014-10-11 12:44:15,0.04,0.07,0.00,23.35,27.05,29.72,4.76,26.12,1016.13,2038.33,3431.88,3314.99,3595.89,349.82,346.98,1.30,0000 0000 0000 0000 000000
2014-10-11 12:49:17,0.04,0.07,0.00,23.28,27.05,29.76,4.70,26.11,1016.13,2038.16,3430.97,3314.32,3595.09,349.39,346.98,1.33,0000 0000 0000 0000 000000
2014-10-11 12:54:18,0.05,0.08,0.00,23.06,27.06,29.82,4.75,26.13,1016.06,2038.10,3430.01,3313.92,3594.42,349.77,347.42,1.36,0000 0000 0000 0000 000000
2014-10-11 12:59:19,0.06,0.08,0.00,23.02,27.06,29.81,4.75,26.13,1015.97,2038.05,3429.12,3313.13,3593.90,349.99,347.50,1.38,0000 0000 0000 0000 000000